[[{"header":{"parameterUnit":"m.s-1","parameterCategory":1,"la1":30.2991,"la2":30.254,"lo1":-89.0895,"lo2":-89.0444,"dx":0.0017,"dy":0.0017,"nx":28,"ny":28,"refTime":"2023-01-22T03:00:00:Z","depth":0,"parameterNumber":2,"parameterNumberName":"U-component_of_WINDS"},"data":[0,0,0,0,0,0,0,0,0,0,0,0,0,0,0,0,0,0,0,0,0,0,0,0,0,0,0,0,0,0,0,0,0,0,0,0,0,0,0,0,0,0,0,0,0,0,0,0,0,0,0,0,0,0,0,0,0,0,-5.1526,-5.1526,0,-5.1566,-5.1567,-5.1567,-5.1439,-5.1435,-5.1431,-5.1428,-5.147,-5.1475,-5.1479,0,0,0,0,0,0,0,0,0,0,0,0,0,-5.134,-5.1344,-5.1526,-5.1526,-5.1527,-5.1566,-5.1567,-5.1567,-5.144,-5.1435,-5.143,-5.1426,-5.1469,-5.1474,-5.148,0,0,0,0,0,0,0,0,0,0,0,0,0,-5.1405,-5.1346,-5.1526,-5.1468,-5.1463,-5.1566,-5.1567,-5.1567,-5.1441,-5.1435,-5.1429,-5.1424,-5.1467,-5.1474,-5.1481,-5.1641,0,0,-5.1502,-5.1506,0,0,0,0,0,0,0,0,-5.1401,-5.1412,-5.1476,-5.1472,-5.1467,-5.1492,-5.1517,-5.1592,-5.1442,-5.1449,-5.1428,-5.1421,-5.1482,-5.1488,-5.1508,-5.1643,-5.1645,-5.1503,-5.1507,-5.151,-5.1512,0,0,0,0,0,0,0,-5.1397,-5.1409,-5.1542,-5.1477,-5.1472,-5.1441,-5.1443,-5.153,-5.1498,-5.1448,-5.1439,-5.1446,-5.1478,-5.1501,-5.1508,-5.1646,-5.1503,-5.1509,-5.1514,-5.1516,-5.1917,-5.1923,0,0,0,0,0,0,-5.14,-5.1407,-5.154,-5.1543,-5.1419,-5.1449,-5.1452,-5.149,-5.1497,-5.1492,-5.1451,-5.1439,-5.1492,-5.15,-5.1509,-5.1698,-5.151,-5.1517,-5.1521,-5.1911,-5.1919,-5.1925,0,0,0,0,0,0,-5.1396,-5.1413,-5.1539,-5.1472,-5.1486,-5.1458,-5.1502,-5.1493,-5.1516,-5.1498,-5.1492,-5.148,-5.1488,-5.1499,-5.161,-5.1698,-5.152,-5.1527,-5.1903,-5.1913,-5.1922,-5.2078,0,0,0,0,0,0,-5.1392,-5.1413,-5.1473,-5.1475,-5.149,-5.1639,-5.1507,-5.1498,-5.1529,-5.1515,-5.1524,-5.152,-5.1484,-5.16,-5.1617,-5.1704,-5.1532,-5.1895,-5.1908,-5.1919,-5.2065,-5.2091,-5.2114,0,0,0,0,0,-5.1386,-5.1515,-5.1476,-5.1493,-5.1564,-5.1644,-5.1653,-5.1608,-5.1536,-5.1597,-5.1586,-5.152,-5.1686,-5.1612,-5.163,-5.1721,-5.1889,-5.1904,-5.1918,-5.2053,-5.2086,-5.2114,0,0,0,0,0,0,-5.1523,-5.1514,-5.1471,-5.1605,-5.1626,-5.1622,-5.1697,-5.1644,-5.1686,-5.1671,-5.1615,-5.1619,-5.174,-5.1742,-5.166,-5.1878,-5.1775,-5.1794,-5.1872,-5.1903,-5.1928,-5.1924,-5.1538,0,0,0,0,0,-5.157,-5.1634,-5.1623,-5.1742,-5.1755,-5.1725,-5.1757,-5.1722,-5.1742,-5.175,-5.1747,-5.1769,-5.1826,-5.1865,-5.1917,-5.2065,-5.2066,-5.2137,-5.2162,-5.2182,-5.2199,-5.2278,-5.231,-5.1972,-5.1972,-5.1972,0,0,-5.1665,-5.1668,-5.1712,-5.177,-5.1782,-5.1851,-5.1733,-5.181,-5.1861,-5.1762,-5.1866,-5.1865,-5.1886,-5.2017,-5.2075,-5.2022,-5.2293,-5.2201,-5.2217,-5.2222,-5.2296,-5.2328,-5.2357,-5.1982,-5.198,-5.1979,0,0,-5.1874,-5.1883,-5.1983,-5.1999,-5.2019,-5.1998,-5.2023,-5.2028,-5.2023,-5.2127,-5.2055,-5.2115,-5.2215,-5.2233,-5.2255,-5.2476,-5.2416,-5.2494,-5.2624,-5.2702,-5.2729,-5.2752,-5.283,-5.2859,-5.2511,-5.2511,-5.2511,0,-5.199,-5.209,-5.2041,-5.2125,-5.2153,-5.2067,-5.2169,-5.2186,-5.2223,-5.2245,-5.2186,-5.2311,-5.2319,-5.2453,-5.2507,-5.2528,-5.2555,-5.2492,-5.2729,-5.2752,-5.2773,-5.2847,-5.2876,-5.252,-5.2519,-5.2518,-5.2518,0,-5.2232,-5.2303,-5.2382,-5.242,-5.2457,-5.2549,-5.2516,-5.2559,-5.2522,-5.2508,-5.2616,-5.2624,-5.2676,-5.2706,-5.2669,-5.2836,-5.2803,-5.2738,-5.2633,-5.2815,-5.2883,-5.2911,-5.2534,-5.253,-5.2528,-5.2525,0,0,-5.2525,-5.2538,-5.2567,-5.2584,-5.2602,-5.2656,-5.2746,-5.2797,-5.2836,-5.2866,-5.2939,-5.3027,-5.2968,-5.2993,-5.2959,-5.3028,-5.3202,-5.2954,-5.2954,-5.3,-5.3387,-5.3435,-5.3468,-5.3164,-5.317,-5.3174,-5.3385,0,-5.2731,-5.2883,-5.2843,-5.2995,-5.3061,-5.2982,-5.306,-5.3081,-5.3071,-5.3126,-5.3116,-5.3179,-5.3096,-5.3111,-5.3176,-5.3167,-5.3279,-5.3152,-5.3233,-5.3236,-5.3228,-5.3504,-5.3554,-5.3753,-5.3411,-5.3416,-5.3419,0,-5.2989,-5.3029,-5.3188,-5.3197,-5.3223,-5.3294,-5.3338,-5.3392,-5.3414,-5.3403,-5.3434,-5.3386,-5.3476,-5.3372,-5.3495,-5.341,-5.3441,-5.3442,-5.3449,-5.3453,-5.3337,-5.3515,-5.3815,-5.3845,-5.3461,-5.3458,-5.3455,0,-5.3187,-5.3281,-5.3388,-5.3405,-5.3418,-5.347,-5.3478,-5.3494,-5.3529,-5.3569,-5.359,-5.3641,-5.3668,-5.3708,-5.3676,-5.3604,-5.3805,-5.3698,-5.3798,-5.3799,-5.3842,-5.3839,-5.415,-5.3865,-5.3865,-5.3864,-5.3863,0,-5.3419,-5.352,-5.3477,-5.3543,-5.3654,-5.3609,-5.3719,-5.3718,-5.3735,-5.3799,-5.3735,-5.3798,-5.3752,-5.3812,-5.3788,-5.3894,-5.3907,-5.39,-5.3892,-5.3905,-5.3906,-5.3923,-5.3908,-5.3872,-5.387,-5.3869,-5.3867,0,-5.3658,-5.3634,-5.3745,-5.375,-5.3753,-5.3834,-5.3838,-5.39,-5.3887,-5.397,-5.3987,-5.3967,-5.4034,-5.4007,-5.4077,-5.4061,-5.4197,-5.4171,-5.4189,-5.4182,-5.4283,-5.4274,-5.4615,-5.4657,-5.4346,-5.4349,-5.4352,0,-5.3806,-5.3882,-5.3895,-5.3934,-5.3947,-5.401,-5.4045,-5.4005,-5.4044,-5.4077,-5.4135,-5.4196,-5.4242,-5.4353,-5.4345,-5.44,-5.4374,-5.449,-5.4382,-5.4393,-5.4375,-5.437,-5.4378,-5.4511,-5.4515,-5.4518,-5.452,0,-5.4073,-5.4058,-5.411,-5.416,-5.4204,-5.4241,-5.4272,-5.4308,-5.427,-5.4317,-5.4385,-5.4421,-5.4494,-5.4556,-5.4605,-5.4613,-5.4561,-5.4555,-5.4581,-5.4593,-5.46,-5.4597,-5.4247,-5.4547,-5.4544,-5.4542,-5.4541,-5.454,-5.427,-5.4334,-5.4354,-5.4415,-5.4435,-5.4466,-5.4525,-5.452,-5.4576,-5.4631,-5.4605,-5.4684,-5.4706,-5.4766,-5.4783,-5.4845,-5.4799,-5.4837,-5.4846,-5.4856,-5.4869,-5.4593,-5.4854,-5.4853,-5.4852,-5.4852,-5.4851,0,-5.4533,-5.4542,-5.4599,-5.4646,-5.4695,-5.4642,-5.4675,-5.472,-5.479,-5.4815,-5.4863,-5.4942,-5.5002,-5.5001,-5.5057,-5.5107,-5.5084,-5.5123,-5.5118,-5.5121,-5.4906,-5.4878,-5.514,-5.514,-5.514,-5.514,-5.514,-5.514,-5.4675,-5.478,-5.4768,-5.4884,-5.4892,-5.4969,-5.4992,-5.5022,-5.5042,-5.5133,-5.5183,-5.5181,-5.5197,-5.5254,-5.5308,-5.5306,-5.5329,-5.5377,-5.5366,-5.5165,-5.5136,-5.5109,-5.5082,-5.5382,-5.5383,-5.5575,-5.5577,-5.5578]},{"header":{"parameterUnit":"m.s-1","parameterCategory":1,"la1":30.2991,"la2":30.254,"lo1":-89.0895,"lo2":-89.0444,"dx":0.0017,"dy":0.0017,"nx":28,"ny":28,"refTime":"2023-01-22T03:00:00:Z","depth":0,"parameterNumber":3,"parameterNumberName":"V-component_of_WINDS"},"data":[0,0,0,0,0,0,0,0,0,0,0,0,0,0,0,0,0,0,0,0,0,0,0,0,0,0,0,0,0,0,0,0,0,0,0,0,0,0,0,0,0,0,0,0,0,0,0,0,0,0,0,0,0,0,0,0,0,0,-0.4906,-0.4906,0,-0.4915,-0.4916,-0.4916,-0.4926,-0.4926,-0.4926,-0.4926,-0.4934,-0.4934,-0.4934,0,0,0,0,0,0,0,0,0,0,0,0,0,-0.4894,-0.4894,-0.4906,-0.4906,-0.4907,-0.4915,-0.4916,-0.4916,-0.4926,-0.4926,-0.4926,-0.4926,-0.4934,-0.4934,-0.4934,0,0,0,0,0,0,0,0,0,0,0,0,0,-0.4901,-0.4894,-0.4906,-0.4913,-0.4913,-0.4915,-0.4916,-0.4916,-0.4926,-0.4926,-0.4926,-0.4926,-0.4934,-0.4934,-0.4934,-0.4931,0,0,-0.4935,-0.4935,0,0,0,0,0,0,0,0,-0.49,-0.4901,-0.4912,-0.4912,-0.4913,-0.492,-0.4914,-0.4921,-0.4925,-0.4921,-0.4926,-0.4926,-0.4929,-0.493,-0.4931,-0.4931,-0.4931,-0.4935,-0.4935,-0.4935,-0.4935,0,0,0,0,0,0,0,-0.49,-0.4901,-0.491,-0.4912,-0.4912,-0.4914,-0.4915,-0.4915,-0.4924,-0.4921,-0.4922,-0.4923,-0.4929,-0.4931,-0.4931,-0.4931,-0.4935,-0.4935,-0.4935,-0.4935,-0.4926,-0.4925,0,0,0,0,0,0,-0.4899,-0.49,-0.491,-0.491,-0.4907,-0.4914,-0.4915,-0.4917,-0.4924,-0.4925,-0.4923,-0.4923,-0.493,-0.4931,-0.4931,-0.4926,-0.4935,-0.4935,-0.4935,-0.4926,-0.4926,-0.4925,0,0,0,0,0,0,-0.4898,-0.49,-0.4909,-0.4905,-0.4907,-0.4914,-0.4916,-0.4917,-0.4919,-0.4925,-0.4926,-0.4923,-0.4931,-0.4931,-0.493,-0.4926,-0.4935,-0.4935,-0.4926,-0.4926,-0.4925,-0.4916,0,0,0,0,0,0,-0.4898,-0.4899,-0.4899,-0.4905,-0.4907,-0.4909,-0.4916,-0.4917,-0.4919,-0.492,-0.4925,-0.4926,-0.4931,-0.493,-0.493,-0.4927,-0.4935,-0.4927,-0.4926,-0.4926,-0.4916,-0.4915,-0.4914,0,0,0,0,0,-0.4898,-0.4897,-0.4899,-0.49,-0.4907,-0.4909,-0.491,-0.4915,-0.4919,-0.4918,-0.4921,-0.4926,-0.4926,-0.493,-0.493,-0.4926,-0.4927,-0.4926,-0.4926,-0.4917,-0.4915,-0.4914,0,0,0,0,0,0,-0.489,-0.4898,-0.4901,-0.4902,-0.4904,-0.4911,-0.491,-0.4914,-0.4916,-0.4916,-0.4923,-0.4924,-0.4921,-0.4924,-0.4927,-0.4921,-0.4927,-0.4927,-0.492,-0.4919,-0.4917,-0.4917,-0.4935,0,0,0,0,0,-0.4889,-0.489,-0.4896,-0.4897,-0.4898,-0.4903,-0.4904,-0.4908,-0.4911,-0.4912,-0.4916,-0.4918,-0.4918,-0.4919,-0.4919,-0.4916,-0.4916,-0.4913,-0.4912,-0.4911,-0.491,-0.4906,-0.4905,-0.4923,-0.4923,-0.4923,0,0,-0.4886,-0.489,-0.4891,-0.4895,-0.4898,-0.4898,-0.4904,-0.4905,-0.4905,-0.4913,-0.4912,-0.4914,-0.4916,-0.4913,-0.4912,-0.4915,-0.4905,-0.491,-0.4909,-0.4909,-0.4905,-0.4904,-0.4902,-0.4922,-0.4923,-0.4923,0,0,-0.488,-0.4884,-0.4884,-0.4886,-0.4889,-0.4892,-0.4892,-0.4897,-0.4898,-0.4897,-0.4902,-0.4901,-0.4902,-0.4903,-0.4904,-0.4894,-0.4898,-0.4894,-0.4887,-0.4883,-0.4882,-0.488,-0.4876,-0.4874,-0.4893,-0.4893,-0.4893,0,-0.4876,-0.4878,-0.4883,-0.4883,-0.4883,-0.4889,-0.4888,-0.4889,-0.4892,-0.4892,-0.4895,-0.4895,-0.4897,-0.4893,-0.4891,-0.4891,-0.489,-0.4894,-0.4882,-0.488,-0.4879,-0.4875,-0.4873,-0.4893,-0.4893,-0.4893,-0.4893,0,-0.4871,-0.4872,-0.4871,-0.4874,-0.4874,-0.4873,-0.4877,-0.4876,-0.4879,-0.4881,-0.4878,-0.488,-0.4881,-0.488,-0.4883,-0.4875,-0.4877,-0.4881,-0.4886,-0.4877,-0.4872,-0.4871,-0.4892,-0.4892,-0.4892,-0.4893,0,0,-0.4865,-0.4867,-0.4867,-0.4867,-0.487,-0.487,-0.4867,-0.4867,-0.4866,-0.4867,-0.4864,-0.4863,-0.4866,-0.4866,-0.4869,-0.4865,-0.4855,-0.4869,-0.4869,-0.4866,-0.4845,-0.4842,-0.484,-0.4857,-0.4857,-0.4857,-0.4844,0,-0.4859,-0.4857,-0.486,-0.4856,-0.4856,-0.4859,-0.4857,-0.4857,-0.4858,-0.4856,-0.4857,-0.4856,-0.486,-0.486,-0.4856,-0.4857,-0.4851,-0.4858,-0.4854,-0.4853,-0.4853,-0.4838,-0.4836,-0.4824,-0.4843,-0.4842,-0.4842,0,-0.4854,-0.4854,-0.485,-0.485,-0.4849,-0.4848,-0.4846,-0.4845,-0.4844,-0.4845,-0.4843,-0.4846,-0.4842,-0.4847,-0.484,-0.4845,-0.4842,-0.4842,-0.4842,-0.4842,-0.4848,-0.4837,-0.482,-0.4818,-0.484,-0.484,-0.484,0,-0.4848,-0.4846,-0.4843,-0.4843,-0.4843,-0.4841,-0.4841,-0.4841,-0.4839,-0.4837,-0.4836,-0.4834,-0.4832,-0.4829,-0.483,-0.4834,-0.4822,-0.4828,-0.4822,-0.4822,-0.482,-0.482,-0.4802,-0.4819,-0.4819,-0.4819,-0.4819,0,-0.4842,-0.4839,-0.484,-0.4838,-0.4834,-0.4836,-0.4832,-0.4832,-0.483,-0.4827,-0.483,-0.4826,-0.4828,-0.4824,-0.4824,-0.4817,-0.4817,-0.4816,-0.4816,-0.4816,-0.4816,-0.4815,-0.4816,-0.4818,-0.4819,-0.4819,-0.4819,0,-0.4835,-0.4836,-0.4833,-0.4832,-0.4831,-0.4828,-0.4827,-0.4824,-0.4824,-0.482,-0.4819,-0.4818,-0.4814,-0.4814,-0.4809,-0.4809,-0.48,-0.4801,-0.48,-0.48,-0.4794,-0.4794,-0.4775,-0.4771,-0.479,-0.479,-0.479,0,-0.4832,-0.4829,-0.4828,-0.4825,-0.4825,-0.4822,-0.482,-0.482,-0.4818,-0.4815,-0.4812,-0.4807,-0.4803,-0.4795,-0.4794,-0.4789,-0.479,-0.4783,-0.4789,-0.4788,-0.4788,-0.4788,-0.4787,-0.4782,-0.4782,-0.4782,-0.4781,0,-0.4824,-0.4824,-0.4822,-0.4818,-0.4815,-0.4813,-0.481,-0.4808,-0.4808,-0.4805,-0.48,-0.4797,-0.479,-0.4785,-0.4779,-0.4777,-0.4779,-0.4779,-0.4777,-0.4777,-0.4776,-0.4775,-0.4796,-0.478,-0.478,-0.478,-0.478,-0.478,-0.4819,-0.4816,-0.4813,-0.4809,-0.4807,-0.4804,-0.48,-0.4799,-0.4795,-0.479,-0.4789,-0.4783,-0.4779,-0.4772,-0.4769,-0.4763,-0.4765,-0.4763,-0.4762,-0.4761,-0.476,-0.4777,-0.4762,-0.4762,-0.4762,-0.4762,-0.4762,0,-0.4811,-0.4809,-0.4805,-0.4801,-0.4797,-0.4798,-0.4794,-0.479,-0.4785,-0.4781,-0.4776,-0.4769,-0.4763,-0.4759,-0.4753,-0.4748,-0.4748,-0.4746,-0.4747,-0.4746,-0.4759,-0.4761,-0.4746,-0.4746,-0.4746,-0.4746,-0.4746,-0.4746,-0.4807,-0.4801,-0.48,-0.4792,-0.4789,-0.4783,-0.478,-0.4776,-0.4773,-0.4764,-0.4759,-0.4757,-0.4752,-0.4744,-0.4738,-0.4737,-0.4734,-0.4731,-0.473,-0.4743,-0.4745,-0.4747,-0.4748,-0.4731,-0.4731,-0.4717,-0.4717,-0.4717]}]]